Flight Track Log - Related Links

Times and Time Zones

All times are in EDT time to prevent confusion due to time zone crossing. See the N839AY flight status page for this flight to view local times or setup timezone preferences in your user account.

Time Position Orientation Groundspeed Altitude Reporting Facility
EDT Latitude Longitude Course Direction KTS MPH feet Rate Location/Type
Wed 01:34:41 PM 41.0803 -85.1319 44° Northeast 256 295 6,400  Level Chicago Center
Wed 01:38:04 PM 41.3033 -84.8403 44° Northeast 361 415 12,700 1,506 Climbing Cleveland Center
Wed 01:39:04 PM 41.3819 -84.7403 50° Northeast 389 448 13,000 150 Climbing Cleveland Center
Wed 01:40:04 PM 41.4483 -84.6336 50° Northeast 395 455 13,000  Level Cleveland Center
Wed 01:41:04 PM 41.5211 -84.5189 48° Northeast 407 468 13,000  Level Cleveland Center
Wed 01:42:04 PM 41.5981 -84.4042 51° Northeast 412 474 13,000 -200 Level Cleveland Center
Wed 01:43:04 PM 41.6686 -84.2889 49° Northeast 412 474 12,600 -450 Descending Cleveland Center
Wed 01:44:04 PM 41.7431 -84.1733 52° Northeast 391 450 12,100 -375 Descending Cleveland Center
Wed 01:44:40 PM 41.7828 -84.1058 48° Northeast 372 428 12,000 -62 Descending Cleveland Center
Wed 01:45:41 PM 41.8506 -84.0036 43° Northeast 369 425 12,000  Level Cleveland Center
Wed 01:46:42 PM 41.9242 -83.9128 43° Northeast 363 418 12,000  Level Cleveland Center
Wed 01:47:43 PM 41.9997 -83.8189 44° Northeast 362 417 12,000  Level Cleveland Center
Wed 01:48:38 PM 42.0647 -83.7356 45° Northeast 359 413 12,000  Level Cleveland Center
Wed 01:49:39 PM 42.1317 -83.6464 46° Northeast 335 386 12,000 -235 Level Cleveland Center
Wed 01:50:20 PM 42.1700 -83.5931 44° Northeast 281 323 11,600 -815 Descending FAA TRACON SMA TRACON (SMA)
Wed 01:51:00 PM 42.2064 -83.5450 30° Northeast 272 313 10,900 -805 Descending FAA TRACON SMA TRACON (SMA)
Wed 01:51:42 PM 42.2539 -83.5086 19° North 259 298 10,500 -987 Descending FAA TRACON SMA TRACON (SMA)
Wed 01:52:19 PM 42.2933 -83.4900 23° Northeast 255 293 9,600 -1,385 Descending FAA TRACON SMA TRACON (SMA)
Wed 01:53:00 PM 42.3347 -83.4658 22° Northeast 249 287 8,700 -1,390 Descending FAA TRACON SMA TRACON (SMA)
Wed 01:53:41 PM 42.3756 -83.4439 42° Northeast 242 278 7,700 -1,704 Descending FAA TRACON SMA TRACON (SMA)
Wed 01:54:21 PM 42.4083 -83.4044 86° East 247 284 6,400 -2,025 Descending FAA TRACON SMA TRACON (SMA)
Wed 01:55:01 PM 42.4117 -83.3450 104° East 241 277 5,000 -2,100 Descending FAA TRACON SMA TRACON (SMA)
Wed 01:55:41 PM 42.4014 -83.2897 163° South 231 266 3,600 -1,800 Descending FAA TRACON SMA TRACON (SMA)
Wed 01:56:21 PM 42.3611 -83.2728 202° Southwest 229 264 2,600 -975 Descending FAA TRACON SMA TRACON (SMA)
Wed 01:57:01 PM 42.3256 -83.2925 209° Southwest 190 219 2,300 -225 Descending FAA TRACON SMA TRACON (SMA)
Wed 01:57:41 PM 42.2981 -83.3131 209° Southwest 160 184 2,300 -370 Level FAA TRACON SMA TRACON (SMA)
Wed 01:58:22 PM 42.2747 -83.3303 209° Southwest 143 165 1,800 -750 Descending FAA TRACON SMA TRACON (SMA)
Wed 01:59:01 PM 42.2517 -83.3475 209° Southwest 142 163 1,300 -750 Descending FAA TRACON SMA TRACON (SMA)
Wed 01:59:42 PM 42.2289 -83.3644 209° Southwest 137 158 800 -732 Descending FAA TRACON SMA TRACON (SMA)

Login

Don't have an account? Register now (free) for customized features, flight alerts, and more!